Badin Lake Weather Center

Moon Phase Calendar



Badin Lake Water Level
Online Cameras

 


      

Current Conditions in Badin
2/27/2021 7:05:45 PM

49°F
Feels Like 48
Clear
Humidity
100%
Pressure
30.27"
Wind
1.6 mph (N)
Dew Point
49°F
UV Index
0/10 (Low)
Visibility
6 mi

Hourly Forecast

Date & Time Sat, Feb 27
7:00 PM
Sat, Feb 27
8:00 PM
Sat, Feb 27
9:00 PM
Sat, Feb 27
10:00 PM
Sat, Feb 27
11:00 PM
Sun, Feb 28
12:00 AM
Sun, Feb 28
1:00 AM
Sun, Feb 28
2:00 AM
Sun, Feb 28
3:00 AM
Sun, Feb 28
4:00 AM
Sun, Feb 28
5:00 AM
Sun, Feb 28
6:00 AM
Sun, Feb 28
7:00 AM
Sun, Feb 28
8:00 AM
Sun, Feb 28
9:00 AM
Sun, Feb 28
10:00 AM
Sun, Feb 28
11:00 AM
Sun, Feb 28
12:00 PM
Sun, Feb 28
1:00 PM
Sun, Feb 28
2:00 PM
Sun, Feb 28
3:00 PM
Sun, Feb 28
4:00 PM
Sun, Feb 28
5:00 PM
Sun, Feb 28
6:00 PM
Sun, Feb 28
7:00 PM
Sun, Feb 28
8:00 PM
Sun, Feb 28
9:00 PM
Sun, Feb 28
10:00 PM
Sun, Feb 28
11:00 PM
Mon, Mar 1
12:00 AM
Mon, Mar 1
1:00 AM
Mon, Mar 1
2:00 AM
Mon, Mar 1
3:00 AM
Mon, Mar 1
4:00 AM
Mon, Mar 1
5:00 AM
Mon, Mar 1
6:00 AM
Mon, Mar 1
7:00 AM
Mon, Mar 1
8:00 AM
Mon, Mar 1
9:00 AM
Mon, Mar 1
10:00 AM
Mon, Mar 1
11:00 AM
Mon, Mar 1
12:00 PM
Mon, Mar 1
1:00 PM
Mon, Mar 1
2:00 PM
Mon, Mar 1
3:00 PM
Mon, Mar 1
4:00 PM
Mon, Mar 1
5:00 PM
Mon, Mar 1
6:00 PM
Condition
Clear

Clouds

Clouds

Clouds

Clouds

Clouds

Clouds

Clouds

Clouds

Clouds

Clouds

Clouds

Rain

Rain

Clouds

Clouds

Clouds

Clouds

Clouds

Clouds

Clouds

Clouds

Clouds

Clouds

Clouds

Clouds

Clouds

Clouds

Clouds

Clouds

Clouds

Clouds

Clouds

Clouds

Clouds

Clouds

Clouds

Clouds

Rain

Rain

Rain

Rain

Rain

Clouds

Clouds

Clouds

Rain

Rain
Temperature 49°F52°F54°F55°F55°F54°F54°F54°F55°F56°F57°F58°F59°F61°F63°F65°F70°F74°F75°F76°F75°F75°F73°F69°F67°F66°F65°F64°F63°F63°F64°F64°F64°F64°F64°F63°F64°F65°F63°F57°F56°F56°F56°F57°F57°F58°F58°F53°F
Feels Like 48°F52°F54°F54°F54°F53°F53°F54°F55°F56°F55°F57°F58°F60°F62°F64°F67°F69°F70°F70°F71°F72°F73°F68°F66°F65°F64°F63°F62°F62°F61°F61°F61°F60°F61°F60°F60°F62°F61°F53°F53°F56°F56°F57°F57°F56°F53°F47°F
Cloudiness 1%49%75%90%82%71%75%100%100%100%100%100%100%100%100%98%97%97%97%81%90%91%70%76%78%98%77%84%88%90%92%100%96%93%95%96%97%100%100%100%100%100%100%100%100%100%100%100%
Visibility 6 mi6 mi6 mi6 mi6 mi6 mi6 mi6 mi6 mi6 mi6 mi6 mi6 mi2 mi6 mi6 mi6 mi6 mi6 mi6 mi6 mi6 mi6 mi6 mi6 mi6 mi6 mi6 mi6 mi6 mi6 mi6 mi6 mi6 mi6 mi6 mi6 mi6 mi6 mi6 mi6 mi6 mi6 mi6 mi6 mi6 mi6 mi6 mi
Precipitation 0%0%0%0%0%0%0%0%0%0%0%0%20%70%61%53%41%32%23%0%0%0%0%0%0%0%0%0%0%0%0%4%0%0%0%0%7%73%99%99%100%100%100%24%12%13%35%52%
Humidity 100%94%91%90%90%92%93%94%94%95%97%97%98%97%94%90%75%65%59%58%59%62%70%76%79%81%86%88%90%90%88%88%89%89%89%90%89%87%86%87%90%92%91%88%90%88%82%84%
Dew Point 49°F51°F51°F52°F52°F52°F52°F53°F54°F55°F56°F58°F58°F60°F61°F62°F62°F61°F60°F60°F60°F61°F63°F61°F60°F60°F60°F60°F60°F60°F60°F61°F61°F61°F61°F60°F61°F61°F59°F53°F53°F54°F54°F54°F54°F54°F52°F49°F
Pressure 30.27"30.27"30.24"30.24"30.24"30.21"30.21"30.21"30.18"30.18"30.15"30.15"30.15"30.15"30.15"30.15"30.12"30.09"30.06"30.03"30"29.97"29.97"30"30"30"30"30"29.97"29.94"29.94"29.91"29.88"29.85"29.85"29.88"29.88"29.91"29.94"29.94"29.94"29.94"29.94"29.94"29.94"29.94"30"30.06"
Wind Speed 1.6 mph1.4 mph1.1 mph1.3 mph2.2 mph3.7 mph3.7 mph2.8 mph2.9 mph3.5 mph5.4 mph7 mph6.1 mph6.6 mph8.5 mph9.2 mph12 mph15.4 mph15.8 mph15.2 mph13.5 mph11.2 mph8.1 mph8.4 mph7.9 mph7.9 mph7.7 mph7.4 mph8.4 mph8.9 mph10.2 mph10.8 mph11.1 mph11.9 mph11.4 mph11.6 mph12.2 mph12.2 mph9.3 mph9 mph6.6 mph1.8 mph2.6 mph3.8 mph3.3 mph5 mph9.1 mph10 mph
Wind
Direction
349°
N
13°
NNE
89°
E
72°
ENE
101°
E
120°
ESE
128°
SE
119°
ESE
129°
SE
145°
SE
158°
SSE
178°
S
194°
SSW
203°
SSW
221°
SW
223°
SW
224°
SW
223°
SW
226°
SW
230°
SW
231°
SW
228°
SW
221°
SW
217°
SW
220°
SW
225°
SW
221°
SW
217°
SW
212°
SSW
212°
SSW
216°
SW
217°
SW
216°
SW
217°
SW
223°
SW
224°
SW
231°
SW
238°
WSW
319°
NW
21°
NNE

N
22°
NNE
206°
SSW
250°
WSW
281°
W
288°
WNW
295°
WNW
328°
NNW

Daily Forecast

Date High Low Precip. Humidity
Today
Feb 27

Rain
68 °F
41 °F
100%
87%
Sunday
Feb 28

Rain
75 °F
54 °F
38%
68%
Monday
Mar 1

Rain
65 °F
46 °F
100%
90%
Tuesday
Mar 2

Clouds
48 °F
35 °F
0%
34%
Wednesday
Mar 3

Clouds
56 °F
34 °F
0%
50%
Thursday
Mar 4

Clouds
63 °F
44 °F
0%
56%
Friday
Mar 5

Rain
55 °F
47 °F
100%
92%
Saturday
Mar 6

Rain
48 °F
38 °F
100%
90%
Sunday
Mar 7

Clouds
49 °F
34 °F
0%
48%
Monday
Mar 8

Clear
59 °F
30 °F
0%
39%
Tuesday
Mar 9

Clear
62 °F
37 °F
0%
40%
Wednesday
Mar 10

Clear
66 °F
42 °F
0%
45%
Thursday
Mar 11

Clear
67 °F
48 °F
6%
49%
Friday
Mar 12

Rain
61 °F
45 °F
85%
42%
Saturday
Mar 13

Clouds
62 °F
42 °F
0%
47%
Sunday
Mar 14

Clouds
74 °F
54 °F
0%
72%


Temperature 8-14 Day Outlook



Precipitation 8-14 Day Outlook




Quick Links
Badin Lake News
Badin Lake Photos
Badin Lake Videos




About Us
Contact Us
Site Map
Search Site
Advertise With Us
   
Badin.LakesOnline.com
THE BADIN LAKE WEBSITE

Copyright 2021, Lakes Online
Privacy    |    Legal